ONEWEB-0590

operational
NORAD ID: 54656 Int'l Des: 2022-166 Owner: ONEWEBN Country: UK Constellation: oneweb
LEOCIRCULARPOLARONEWEB_TYPE

Über ONEWEB-0590

Beschreibung wird geladen...

Live-Position

3D-Globus wird geladen...

Nächste Überflüge

Höhenverlauf

Altitude vs Time

uPlot chart will show altitude changes over time

Zweizeiliger Elementsatz

1 54656U 22166Q 25251.55382821 .00000061 00000-0 11732-3 0 9996
2 54656 87.9217 300.1710 0002243 106.0075 254.1306 13.21825912134322
Epoch: 8. Sept. 2025 • Age: 14 hours

Aktueller Status

Höhe 1189.7 km
Geschwindigkeit 7.26 km/s
Subsatellitenpunkt -28.95°S, 104.74°W
Startdatum 8. Dez. 2022
Alter 2.7 years
Typ internet

Technische Details

Klassifizierung Payload
Masse 148.00 kg
Trockenmasse 140.00 kg
Gesamtmasse 148.00 kg
Länge 1.30 m
Durchmesser 1.00 m
Spannweite 5.00 m
Form Trapezoid+2 pan
Hersteller ONEWUS
Bus-Typ ARROW
Phasenstatus In Orbit
Besitzer/Staat ONEWEBN/UK

Große Konstellationen

Loading constellations...